カタログに戻る

BREEZE-M R/B

運用中MEO
NORAD 26738·ROCKET BODY·🇷🇺 Russia

打ち上げ Apr 7, 2001 から Baikonur Cosmodrome

Loading…

次のパス (今後24時間)

TLE

最新Source: Space-Track

元期: Sep 14, 2026, 03:26 UTC

1 26738U 01014C   26257.14360372 -.00000324  00000-0  00000-0 0  9990
2 26738  15.3345  13.5377 0179960 237.2514 133.6209  0.97965842 91038

AllMySatでBREEZE-M R/Bをリアルタイム追跡

Download on the App Store